Weather Roundup
Issued by NWS Chicago, IL

Home | Current Version | Previous Version | Graphics & Text | Print | Product List | Glossary On
Versions: 1 2 3 4 5 6 7 8 9 10 11 12 13 14 15 16 17 18 19 20 21 22 23 24 25 26 27 28 29 30 31 32 33 34 35 36 37 38 39 40 41 42 43 44 45 46 47 48 49 50
000
NZUS59 KLOT 302210
HRRLOT

CHICAGO AREA WEATHER ROUNDUP
NATIONAL WEATHER SERVICE CHICAGO/ROMEOVILLE IL
500 PM CDT WED JUL 30 2014

NOTE: "FAIR" INDICATES FEW OR NO CLOUDS BELOW 12,000 FEET WITH NO
SIGNIFICANT WEATHER AND/OR OBSTRUCTIONS TO VISIBILITY.

* THESE STATIONS ARE NOT UNDER NWS QUALITY CONTROL. THEY ALSO MAY NOT
  REPORT WEATHER SUCH AS PRECIPITATION OR FOG.

ILZ005-006-012>014-019>023-302300-
NORTHEAST ILLINOIS

CITY           SKY/WX    TMP DP  RH WIND       PRES   REMARKS
OHARE          MOSUNNY   74  57  55 NE9       30.01F
MIDWAY         PTSUNNY   72  60  66 E8        30.02S
AURORA         MOSUNNY   78  57  48 W12       30.02F
LANSING*       MOSUNNY   70  58  66 NE10      30.02R
JOLIET*        SUNNY     78  53  40 NW10      30.02S
WAUKEGAN       SUNNY     68  57  68 NE6       30.02F
DUPAGE AIRPORT PTSUNNY   76  56  49 W7        30.01F
WHEELING       SUNNY     72  58  61 E7        30.03F
KANKAKEE*      PTSUNNY   77  61  57 W10G16    30.03S
MORRIS*        SUNNY     79  60  53 W9        30.02F HX  80
LEWIS AIRPORT* MOSUNNY   77  55  46 NW9       30.01F
NORTHERLY IS     N/A     67  60  78 NE6         N/A
$$

WIZ051-052-058>065-066-070>072-302300-
SOUTHEAST WISCONSIN

CITY           SKY/WX    TMP DP  RH WIND       PRES   REMARKS
MILWAUKEE      MOSUNNY   68  54  60 SE7       30.02F
KENOSHA*       SUNNY     70  58  65 E8        30.03F
RACINE*        MOSUNNY   68  56  65 E8        30.04F
BURLINGTON     SUNNY     73  50  43 W8        30.02F
WAUKESHA       PTSUNNY   72  55  56 NE5       30.03F
WEST BEND      MOSUNNY   72  46  40 W8        30.02S
$$

INZ001>003-010>013-019-020-302300-
NORTHWEST INDIANA

CITY           SKY/WX    TMP DP  RH WIND       PRES   REMARKS
GARY*          MOSUNNY   70  63  78 NE9       30.03F
MICHIGAN CITY* NOT AVBL
RENSSELAER*    NOT AVBL
VALPARAISO     MOSUNNY   76  59  55 N7        30.01F
$$

LMZ740>746-302300-
SOUTHERN LAKE MICHIGAN

STATION/POSITION TIME  SKY/WX   TEMP WIND        PRES    VSBY
                                AIR  DIR/SP/G
                 (UTC)          (F)  (DEG/KT/KT) (MB)    (MI)
HARRISON CRIB    2200            63   40/  7/  9   N/A
BURNHAM HARBOR   2200            66   30/  5/ 11   N/A
CALUMET HARBOR   2200            66   10/  5/ 10 1015.7S
BURNS HARBOR     2200            67   40/ 11/ 14 1017.3S
MICHIGAN CITY    2200            64   10/ 11/ 13   N/A
$$

ABBREVIATIONS USED IN REMARKS
   TC - TEMPERATURE IN CELSIUS
  WCI - WIND CHILL INDEX
   HX - HEAT INDEX
  VSB - VISIBILITY
$$



USA.gov is the U.S. government's official web portal to all federal, state and local government web resources and services.